Temperature
16 16 16 15 15 15 15 15 15 15 15 15 15 15 15 15 15 15 15 15 15 15 15 15 15 14 15 15 15 15 15 15 15 15 14 14 15 15 15 15 15 15 15
16 16 16 15 15 15 15 15 15 15 15 15 15 15 15 15 15 15 15 15 15 15 15 14 14 14 14 14 14 14 14 14 14 14 14 14 14 14 14 15 14 14 14
16 15 15 15 15 15 15 15 15 15 15 15 14 14 14 14 14 14 14 14 14 14 14 14 14 14 14 14 14 14 14 14 14 14 14 14 14 14 14 14 14 14 14
15 15 15 15 15 15 15 15 15 15 14 14 14 14 14 14 14 14 14 14 14 14 14 14 14 14 14 14 14 14 14 14 14 14 14 14 14 14 14 14 14 14 14
15 15 15 15 15 15 15 15 14 14 14 14 14 14 14 14 14 14 14 14 14 14 14 14 14 14 14 14 14 14 14 14 13 13 13 14 14 14 14 13 13 14 14
15 15 15 15 15 15 15 14 14 14 14 14 14 14 14 13 13 13 13 13 13 13 13 13 13 13 13 13 13 13 13 13 13 13 13 13 13 13 13 13 13 13 13
15 15 15 15 14 14 14 14 14 14 14 14 14 14 13 13 13 13 13 13 13 13 13 13 13 13 13 13 13 13 13 13 13 13 13 13 13 13 13 13 13 13 13
15 14 14 14 14 14 14 14 14 14 14 14 13 13 13 13 13 13 13 13 13 13 13 13 13 13 13 13 13 13 13 13 13 13 13 13 13 13 13 13 13 13 13
15 14 14 14 14 14 14 14 14 14 13 13 13 13 13 13 13 13 13 13 13 13 13 12 13 12 12 13 13 13 13 13 13 13 13 13 12 12 12 12 12 12 13
14 14 14 14 14 14 14 14 13 13 13 13 13 13 13 13 12 12 13 12 12 12 12 12 12 12 12 12 12 12 12 13 12 12 12 12 12 12 12 12 12 12 12
14 14 14 14 14 14 13 13 13 13 13 13 13 13 13 13 12 12 12 12 12 12 12 12 12 12 12 12 12 12 12 12 12 12 12 12 12 12 12 12 12 12 12
14 14 14 14 13 13 13 13 13 13 13 13 13 13 12 12 12 12 12 12 12 12 12 12 12 12 12 12 12 12 12 12 12 12 12 12 12 12 12 12 12 12 12
14 14 13 13 13 13 13 13 12 12 12 12 12 12 12 12 12 12 12 12 11 12 12 12 12 12 12 12 12 12 12 12 12 12 12 12 12 12 12 12 12 12 12
14 13 13 13 13 13 13 12 12 12 12 12 12 12 12 12 12 11 11 11 11 11 11 12 12 11 11 11 12 12 12 12 12 12 12 11 11 11 11 11 11 12 12
13 13 13 13 13 12 12 12 12 12 12 12 12 12 12 11 11 11 11 11 11 10 11 11 11 11 11 11 11 11 11 11 11 11 11 11 11 11 11 11 11 11 11
13 13 13 13 12 12 12 12 12 12 12 12 11 11 11 11 11 11 11 11 11 11 10 11 11 11 11 11 11 11 11 11 11 11 11 11 11 11 11 11 11 11 11
13 13 12 12 12 12 12 12 12 11 11 11 11 11 11 11 11 11 11 11 11 11 11 11 11 11 11 11 11 11 11 11 11 11 11 11 11 11 11 11 11 11 11
12 12 12 12 12 12 11 11 11 11 11 11 11 11 11 11 11 11 11 11 11 10 10 10 11 11 11 11 11 11 11 11 11 11 11 11 11 11 11 11 11 11 11
12 12 12 11 11 11 11 11 11 11 10 10 11 10 10 10 10 10 10 10 10 10 10 10 10 10 10 10 10 10 10 10 10 10 10 10 10 10 10 10 10 10 10
11 11 11 11 11 11 11 10 10 10 10 10 10 10 10 10 10 10 10 10 10 10 10 10 10 10 10 10 10 10 10 10 10 10 10 10 10 10 10 10 10 10 10
11 11 11 11 10 10 10 10 10 10 10 10 10 10 10 9 9 9 9 9 9 9 9 9 9 9 10 10 10 10 10 10 10 10 10 10 10 10 10 10 10 10 10
10 10 10 10 10 10 10 10 9 9 9 9 9 9 9 9 9 9 9 9 9 9 9 9 9 9 9 9 9 9 9 9 9 9 9 10 9 9 10 10 10 10 10
10 10 10 9 9 9 9 9 9 9 9 9 9 9 9 9 9 9 9 9 9 9 8 8 9 9 9 9 9 9 9 9 9 9 9 9 9 9 9 9 9 9 9
9 9 9 9 9 9 9 9 9 8 8 8 8 8 8 8 8 8 8 8 8 8 8 8 8 8 9 9 8 8 8 8 9 8 8 8 9 9 9 9 9 9 9
9 9 9 8 8 8 8 8 8 8 8 8 8 8 8 8 8 8 7 8 8 8 8 8 8 8 8 8 8 8 8 8 8 8 8 8 8 8 8 9 9 8 8
8 8 8 8 8 8 8 8 8 8 8 7 7 7 7 7 7 7 7 7 7 8 7 8 7 8 8 8 8 8 8 7 7 7 8 8 8 7 7 8 8 8 8
Wind_Speed
2 2 3 4 4 5 4 4 4 5 6 6 7 7 7 8 9 9 9 12 12 11 11 11 11 12 12 12 11 12 11 11 10 11 10 10 10 10 10 10 10 10 10
3 2 3 3 4 4 4 4 4 4 4 4 5 6 7 7 8 9 9 10 12 12 12 11 11 10 11 11 11 11 11 11 10 10 9 9 10 10 10 9 9 10 9
3 3 3 3 3 4 4 4 4 4 4 4 5 5 6 6 7 8 9 9 9 11 12 11 11 10 10 10 10 10 10 10 10 10 10 10 10 9 9 8 8 9 9
4 4 3 3 3 4 4 3 3 3 3 3 3 4 4 4 6 7 8 8 8 8 10 11 10 10 10 10 9 9 9 9 9 9 9 9 9 9 9 8 8 8 8
4 4 3 3 4 4 3 3 3 2 2 3 3 3 4 4 4 6 7 7 8 8 8 8 10 10 9 8 8 8 7 8 8 8 8 8 8 8 8 7 7 7 7
4 4 3 4 4 3 3 3 3 3 2 2 3 4 4 4 4 5 5 6 7 7 8 8 8 8 10 9 7 7 7 7 7 7 7 7 7 7 7 7 7 7 8
4 4 3 3 3 3 3 3 3 3 3 2 3 3 4 4 4 4 4 4 5 6 7 7 6 7 7 9 9 8 6 6 6 6 5 6 6 6 7 6 7 7 7
3 3 3 2 2 3 4 4 3 2 2 2 2 2 2 4 3 3 3 4 4 5 5 5 5 6 6 6 7 8 7 5 4 4 5 5 6 6 6 7 7 7 7
3 3 3 2 2 2 2 2 2 3 1 1 2 2 2 1 2 3 2 3 4 3 3 3 4 5 5 5 5 7 7 5 4 3 4 4 5 6 6 5 5 5 5
2 2 2 2 2 2 2 1 2 1 2 1 1 1 1 2 1 2 3 2 3 3 3 3 3 3 4 4 4 5 6 6 5 4 4 4 4 4 4 4 4 4 4
2 1 2 2 2 1 1 1 2 2 2 1 1 1 1 2 1 2 2 3 3 3 2 2 2 2 3 3 3 4 5 5 5 4 3 3 3 3 3 3 3 3 3
1 1 1 1 1 1 1 1 1 1 1 1 1 1 1 1 1 1 1 2 3 3 3 2 2 2 3 3 4 4 4 4 4 4 4 3 3 3 2 3 3 2 2
1 2 1 1 1 1 1 1 1 1 1 1 1 0 0 1 1 2 1 1 2 3 2 2 2 3 3 4 4 5 4 3 3 3 3 3 3 3 2 2 2 2 1
2 2 1 1 1 1 1 1 1 1 1 1 0 0 0 1 1 1 2 1 1 2 2 3 2 2 3 4 5 5 3 3 3 3 3 3 3 3 2 2 1 1 1
1 1 1 1 1 1 1 1 1 1 1 1 1 1 1 1 1 1 1 2 2 1 3 3 2 3 4 4 5 4 4 4 4 4 4 3 3 3 3 2 2 1 1
1 0 0 0 0 0 1 1 1 1 1 1 1 1 1 1 1 1 1 1 1 2 3 3 3 3 3 4 5 4 5 5 5 5 5 4 3 3 4 3 3 2 2
1 1 1 1 1 1 1 2 2 2 2 1 1 1 2 1 1 1 1 1 1 1 3 3 2 2 2 3 4 3 3 3 4 6 5 5 4 4 4 4 3 3 3
1 1 1 1 1 1 1 2 2 2 3 2 2 2 2 2 2 1 1 2 2 2 2 4 3 2 2 3 2 2 3 3 3 5 5 5 5 4 4 4 4 4 3
1 1 1 1 2 2 2 2 3 3 3 4 4 3 4 2 3 2 2 2 2 1 1 2 3 2 2 2 2 2 2 2 3 4 4 4 4 4 4 3 3 3 4
1 1 1 1 2 2 2 2 2 2 3 4 4 4 4 4 5 4 3 3 2 1 1 1 2 2 2 2 1 1 2 2 3 2 2 3 3 3 3 3 3 4 4
1 1 1 1 1 1 2 2 2 2 3 3 3 4 4 4 4 3 3 3 3 2 1 1 2 2 2 1 2 2 2 3 3 1 1 2 2 1 2 4 5 5 5
1 1 1 2 2 2 2 2 2 2 2 3 4 4 4 4 4 5 5 4 4 3 3 2 2 3 4 4 2 2 2 1 3 1 1 2 1 2 3 3 4 5 5
1 2 2 2 3 4 4 3 4 2 2 3 4 4 4 4 4 3 5 4 5 5 5 5 5 6 5 5 3 3 3 3 4 2 1 2 1 3 3 4 4 5 5
2 2 3 3 3 4 4 4 3 2 3 4 4 4 4 4 4 3 3 3 4 5 6 4 5 6 5 5 5 5 4 3 2 1 1 2 2 3 3 3 5 5 5
2 3 3 3 3 4 5 4 2 2 3 4 4 4 4 4 5 4 3 3 4 4 5 5 5 5 4 4 3 1 1 1 3 2 1 2 2 2 2 3 4 5 6
3 2 3 3 3 4 5 4 3 2 2 3 3 4 6 5 5 4 3 3 4 4 3 3 3 4 3 3 4 4 4 3 2 3 2 2 1 1 2 2 2 2 3
Wind_Direction
50 47 43 42 38 45 53 60 64 58 54 52 55 56 50 46 42 41 37 47 57 66 71 74 72 70 70 67 65 63 63 65 65 65 66 65 66 64 64 65 65 64 64
63 58 50 42 37 42 58 74 76 68 56 57 50 49 49 47 44 42 40 43 50 56 62 68 70 68 67 66 65 63 61 61 62 63 64 65 65 64 61 61 64 63 66
69 68 62 41 32 51 68 72 65 67 60 55 45 43 46 46 44 43 42 41 43 48 53 60 65 65 64 65 65 64 63 61 61 62 62 61 61 60 59 60 63 62 65
66 70 61 39 33 53 66 71 59 61 53 50 43 35 37 42 41 43 45 44 44 43 45 49 55 57 59 61 63 63 63 61 60 60 60 60 57 57 58 58 60 61 66
63 71 58 41 48 59 57 71 61 73 67 46 47 40 31 31 30 43 43 41 43 45 43 42 48 49 50 53 55 59 62 61 60 60 60 59 57 57 59 59 60 62 68
57 65 59 41 53 58 47 57 69 57 68 53 58 43 28 25 31 35 35 38 40 43 44 42 41 39 39 39 41 48 56 58 55 58 60 60 59 58 61 61 60 64 71
57 67 60 52 51 63 60 63 71 66 47 44 60 34 17 23 32 26 26 32 30 31 38 38 36 35 29 30 31 36 45 51 49 51 56 62 63 62 61 61 63 64 63
69 73 73 73 60 65 59 57 67 71 51 51 81 77 18 356 1 14 19 27 16 18 25 26 29 30 27 27 21 27 29 33 41 45 48 58 60 59 62 62 63 64 61
65 67 73 80 71 80 89 70 77 82 91 23 60 110 120 245 313 334 0 13 2 5 2 7 18 20 19 20 17 20 22 21 16 29 41 49 50 53 58 60 63 63 59
53 66 82 90 89 81 96 96 88 87 110 88 14 46 118 153 145 315 329 347 349 350 343 351 355 357 358 2 2 7 13 20 21 21 28 40 45 45 45 47 53 55 55
33 54 89 95 94 92 101 95 84 78 101 117 98 71 63 56 95 154 285 317 332 319 319 318 325 335 336 338 338 348 2 9 11 9 5 14 27 35 35 42 39 38 42
334 5 101 110 120 110 120 136 127 114 107 101 88 91 125 141 197 156 213 282 301 303 308 301 299 303 310 315 315 325 341 354 357 0 352 348 357 9 15 28 26 34 32
278 255 195 172 171 187 157 134 132 146 141 134 143 163 166 188 172 165 164 240 281 297 313 304 281 287 302 305 304 312 312 322 326 337 339 335 333 335 343 351 0 21 17
243 251 222 207 207 189 160 144 158 188 156 174 203 176 219 275 174 168 174 172 311 314 312 292 301 282 298 298 297 304 296 299 303 300 305 310 309 302 304 309 316 328 330
250 265 203 218 214 192 188 162 173 202 174 194 209 219 235 269 254 219 183 177 172 247 277 272 286 296 301 295 296 292 276 275 282 279 283 290 289 288 288 288 267 273 276
248 266 271 224 232 195 177 172 186 190 158 237 199 187 262 265 271 247 210 221 201 195 237 265 264 290 304 307 301 287 270 275 270 268 271 273 282 279 278 277 257 248 249
222 205 223 215 217 237 217 184 206 183 182 232 246 206 254 252 257 275 231 207 217 197 238 278 278 295 298 304 315 307 286 267 269 268 266 264 265 261 263 260 256 248 249
265 223 210 215 218 229 227 203 216 207 197 212 232 227 251 257 254 249 249 229 230 225 222 269 289 290 285 289 302 312 319 296 274 273 266 267 266 259 257 255 255 249 242
291 304 197 216 238 234 227 227 218 218 216 222 225 224 240 229 248 247 248 242 239 253 237 247 278 287 295 311 323 314 317 318 295 283 278 276 271 257 253 246 251 252 244
256 272 244 222 229 232 227 231 221 225 230 234 232 231 233 223 227 227 236 242 230 229 246 249 274 286 289 298 308 299 311 308 298 294 294 287 277 253 244 238 243 249 251
268 265 281 280 258 232 235 229 227 229 235 245 250 246 246 248 250 234 236 232 217 214 224 250 268 290 286 292 275 270 272 299 289 270 318 311 303 274 250 245 239 238 239
283 267 263 273 271 267 285 271 252 226 235 241 253 262 261 253 264 264 262 249 224 212 216 221 250 252 257 250 254 266 269 290 283 268 236 287 271 271 262 253 245 236 234
265 276 281 271 269 271 279 274 268 233 230 243 248 256 272 276 267 251 261 266 260 262 241 219 229 241 245 236 226 243 243 242 250 260 215 258 261 273 269 259 247 243 235
239 254 270 272 270 280 287 277 271 248 245 250 248 245 253 264 267 262 249 256 262 267 262 245 229 239 246 234 219 224 231 255 280 259 192 235 255 264 279 260 252 239 236
252 253 256 264 268 281 292 283 280 245 254 264 264 259 253 253 270 275 247 250 267 281 285 273 272 274 272 260 228 184 198 223 264 258 220 218 250 279 277 264 256 244 237
251 257 273 275 269 274 289 289 269 227 248 268 277 272 267 268 274 269 239 233 251 267 279 294 294 298 289 273 246 210 202 214 235 244 217 203 234 232 282 274 265 257 244
Height
1531 1531 1531 1530 1530 1530 1529 1529 1528 1527 1527 1526 1525 1525 1524 1524 1523 1522 1522 1521 1520 1520 1520 1520 1520 1520 1520 1520 1520 1520 1520 1520 1520 1520 1521 1521 1521 1521 1521 1522 1522 1522 1522
1532 1532 1531 1531 1531 1531 1530 1530 1529 1529 1528 1528 1527 1526 1526 1525 1525 1524 1523 1522 1522 1521 1521 1521 1521 1521 1521 1521 1521 1521 1521 1521 1521 1521 1521 1522 1522 1522 1522 1522 1522 1523 1523
1533 1533 1532 1532 1532 1532 1532 1531 1531 1530 1529 1529 1528 1528 1527 1527 1526 1525 1525 1524 1523 1523 1522 1522 1523 1523 1523 1522 1522 1522 1522 1522 1522 1522 1522 1522 1522 1523 1523 1523 1523 1523 1523
1534 1534 1533 1533 1533 1533 1532 1532 1531 1531 1530 1530 1529 1529 1528 1528 1527 1527 1526 1525 1525 1524 1524 1524 1524 1524 1524 1523 1523 1523 1523 1523 1523 1523 1523 1523 1523 1523 1523 1523 1523 1524 1524
1535 1534 1534 1534 1534 1533 1533 1532 1532 1531 1531 1530 1530 1529 1529 1529 1528 1528 1528 1527 1526 1526 1525 1525 1525 1525 1524 1524 1524 1523 1523 1523 1523 1523 1523 1523 1523 1523 1523 1523 1524 1524 1524
1536 1535 1535 1534 1534 1534 1533 1533 1532 1532 1532 1531 1531 1530 1530 1530 1529 1529 1529 1528 1528 1527 1526 1526 1525 1525 1525 1524 1524 1523 1523 1523 1523 1523 1523 1523 1523 1523 1523 1524 1524 1524 1524
1536 1536 1535 1535 1534 1534 1533 1533 1533 1532 1532 1531 1531 1530 1531 1530 1530 1529 1529 1529 1528 1527 1527 1526 1526 1525 1525 1524 1524 1523 1523 1523 1523 1523 1523 1523 1523 1523 1523 1523 1523 1524 1524
1537 1536 1536 1535 1535 1534 1534 1533 1533 1532 1532 1531 1531 1530 1531 1532 1530 1530 1530 1529 1529 1528 1527 1527 1526 1526 1525 1525 1524 1523 1523 1522 1522 1522 1522 1522 1523 1523 1523 1523 1523 1523 1523
1537 1536 1536 1535 1535 1534 1534 1533 1532 1532 1532 1532 1532 1532 1531 1531 1531 1531 1530 1529 1529 1528 1528 1527 1526 1526 1525 1525 1524 1523 1522 1522 1522 1522 1522 1522 1522 1522 1522 1523 1523 1523 1523
1536 1536 1535 1535 1535 1534 1533 1533 1532 1532 1531 1531 1531 1531 1531 1531 1530 1530 1530 1529 1529 1528 1528 1527 1526 1526 1525 1524 1524 1523 1522 1522 1522 1521 1521 1522 1522 1522 1522 1522 1522 1522 1522
1535 1535 1535 1534 1534 1533 1533 1532 1532 1531 1531 1530 1530 1530 1530 1530 1529 1529 1528 1528 1528 1528 1528 1527 1526 1525 1525 1524 1523 1523 1522 1522 1522 1521 1521 1522 1522 1522 1521 1521 1522 1522 1522
1534 1534 1533 1533 1533 1532 1532 1531 1531 1531 1530 1530 1529 1529 1528 1528 1528 1527 1527 1526 1526 1527 1526 1526 1526 1525 1524 1523 1523 1522 1522 1521 1521 1521 1521 1521 1521 1521 1521 1521 1521 1521 1521
1532 1532 1532 1531 1531 1531 1531 1530 1530 1530 1529 1529 1528 1528 1527 1527 1527 1527 1526 1525 1525 1525 1525 1525 1524 1523 1523 1522 1522 1521 1521 1520 1520 1520 1520 1520 1520 1520 1520 1519 1519 1520 1520
1531 1530 1530 1530 1530 1529 1529 1529 1528 1528 1528 1527 1527 1526 1526 1526 1525 1525 1525 1524 1523 1523 1522 1523 1522 1522 1521 1520 1520 1520 1519 1519 1519 1519 1519 1519 1519 1518 1518 1518 1518 1518 1518
1528 1528 1528 1528 1527 1527 1527 1527 1526 1526 1526 1526 1525 1525 1524 1524 1524 1523 1523 1523 1523 1521 1520 1520 1520 1520 1519 1519 1518 1518 1517 1517 1517 1517 1517 1517 1517 1516 1516 1516 1516 1517 1517
1526 1526 1525 1525 1525 1524 1524 1524 1524 1523 1523 1523 1523 1523 1522 1522 1522 1521 1521 1521 1521 1520 1519 1518 1518 1518 1517 1517 1516 1516 1515 1515 1515 1515 1515 1515 1515 1514 1515 1514 1514 1515 1515
1523 1523 1522 1522 1522 1522 1521 1521 1521 1520 1520 1520 1520 1519 1519 1519 1519 1519 1518 1518 1518 1518 1517 1516 1515 1515 1515 1515 1514 1514 1513 1513 1513 1513 1513 1513 1512 1512 1512 1512 1512 1513 1513
1520 1520 1519 1519 1519 1519 1518 1518 1518 1517 1517 1517 1517 1516 1516 1516 1516 1516 1515 1515 1515 1515 1514 1513 1512 1512 1512 1512 1512 1511 1511 1510 1510 1510 1510 1510 1510 1510 1510 1510 1510 1510 1511
1517 1516 1516 1516 1515 1515 1515 1515 1515 1514 1514 1513 1513 1513 1512 1512 1512 1512 1512 1512 1512 1511 1511 1510 1509 1509 1509 1509 1508 1508 1508 1508 1508 1507 1507 1507 1507 1507 1507 1507 1507 1508 1508
1514 1513 1513 1512 1512 1512 1511 1511 1511 1511 1510 1510 1509 1509 1509 1509 1509 1509 1509 1508 1508 1508 1508 1507 1506 1506 1505 1505 1505 1505 1504 1505 1505 1505 1504 1504 1504 1504 1504 1504 1505 1505 1505
1510 1510 1510 1509 1509 1508 1508 1507 1507 1507 1506 1506 1505 1505 1505 1505 1505 1505 1505 1505 1505 1504 1504 1504 1503 1502 1502 1501 1501 1501 1501 1501 1501 1501 1501 1501 1501 1501 1501 1501 1501 1501 1501
1507 1507 1507 1506 1505 1505 1505 1504 1504 1503 1503 1502 1501 1501 1501 1501 1501 1501 1501 1501 1501 1501 1500 1500 1499 1499 1498 1498 1498 1498 1497 1497 1496 1497 1497 1497 1497 1497 1497 1497 1497 1497 1498
1504 1503 1503 1502 1502 1501 1501 1501 1500 1500 1499 1498 1497 1497 1496 1496 1497 1497 1497 1497 1497 1497 1497 1497 1495 1495 1495 1495 1495 1494 1494 1493 1493 1493 1493 1492 1493 1493 1493 1493 1493 1494 1494
1500 1499 1498 1498 1498 1497 1497 1497 1496 1496 1495 1494 1494 1493 1492 1492 1492 1492 1492 1492 1492 1492 1492 1492 1492 1492 1492 1491 1491 1491 1490 1490 1490 1489 1489 1488 1488 1488 1489 1489 1490 1490 1491
1497 1496 1495 1494 1494 1493 1493 1492 1492 1491 1491 1490 1490 1489 1489 1488 1488 1488 1487 1487 1487 1487 1488 1487 1487 1487 1487 1487 1487 1487 1486 1486 1484 1485 1485 1485 1484 1484 1484 1485 1486 1486 1487
1493 1492 1491 1491 1490 1489 1489 1488 1488 1487 1486 1486 1485 1485 1485 1484 1484 1483 1483 1482 1482 1482 1482 1482 1482 1482 1482 1482 1482 1482 1482 1481 1480 1480 1480 1481 1480 1480 1479 1480 1481 1482 1482